Regional Weather Roundup
Issued by NWS Northern Indiana

Home | Current Version | Previous Version | Text Only | Print | Product List | Glossary On
Versions: 1 2 3 4 5 6 7 8 9 10 11 12 13 14 15 16 17 18 19 20 21 22 23 24 25 26 27 28 29 30 31 32 33 34 35 36 37 38 39 40 41 42 43 44 45 46 47 48 49 50
000
ASUS43 KIWX 221810
RWRIWX

KIWX WEATHER ROUNDUP
NATIONAL WEATHER SERVICE NORTHERN INDIANA
200 PM EDT MON SEP 22 2014

NOTE: "FAIR" INDICATES FEW OR NO CLOUDS BELOW 12,000 FEET WITH NO
SIGNIFICANT WEATHER AND/OR OBSTRUCTIONS TO VISIBILITY.

* THESE STATIONS ARE NOT UNDER NWS QUALITY CONTROL. THEY ALSO MAY NOT
  REPORT WEATHER SUCH AS PRECIPITATION OR FOG.

INZ001>027-221900-
NORTHERN INDIANA

CITY           SKY/WX    TMP DP  RH WIND       PRES   REMARKS
GARY*          MOSUNNY   61  48  63 N7        30.30S
VALPARAISO     SUNNY     62  44  51 N8        30.28F
6HR MIN TEMP:  48; 6HR MAX TEMP:  62;

MICHIGAN CITY* MOSUNNY   59  45  58 N9        30.29S
LAPORTE*       SUNNY     59  43  55 N6        30.28F
6HR MIN TEMP:  45; 6HR MAX TEMP:  59;

KNOX*          SUNNY     61  44  53 N8        30.26F
6HR MIN TEMP:  42; 6HR MAX TEMP:  69;

SOUTH BEND     SUNNY     63  44  50 MISG      30.27S
6HR MIN TEMP:  41; 6HR MAX TEMP:  63;

ELKHART*       SUNNY     63  41  45 N7        30.26F
GOSHEN         SUNNY    N/A N/A N/A NW8       30.26S
MONTICELLO*    SUNNY     62  46  56 N9        30.27F
6HR MIN TEMP:  42; 6HR MAX TEMP:  62;

LOGANSPORT*    SUNNY     61  41  48 NW5       30.28S
ROCHESTER*     SUNNY     63  43  48 NW9       30.27F
WARSAW*        SUNNY     59  43  55 NW6       30.26F
ANGOLA*        SUNNY     61  50  67 N10       30.24S
FORT WAYNE     MOSUNNY   59  42  53 NW6       30.26F
6HR MIN TEMP:  45; 6HR MAX TEMP:  59;

HUNTINGTON*    SUNNY     58  42  54 NW10      30.25F
6HR MIN TEMP:  45; 6HR MAX TEMP:  58;

PERU/GRISSOM   SUNNY     60  46  60 NW6       30.26F
6HR MIN TEMP:  44; 6HR MAX TEMP:  60;

MARION*        SUNNY     58  38  47 N6        30.26F
6HR MIN TEMP:  40; 6HR MAX TEMP:  90;


$$
INZ028>050-221900-
CENTRAL INDIANA

CITY           SKY/WX    TMP DP  RH WIND       PRES   REMARKS
LAFAYETTE      SUNNY     62  46  55 N8        30.27F
6HR MIN TEMP:  43; 6HR MAX TEMP:  62;

KOKOMO*        SUNNY     61  43  51 NW3       30.27S
6HR MIN TEMP:  43; 6HR MAX TEMP:  63;

MUNCIE*        SUNNY     59  38  45 VRB6      30.25F
6HR MIN TEMP:  42; 6HR MAX TEMP:  59;

INDIANAPOLIS   MOSUNNY   62  42  47 N12       30.26S
6HR MIN TEMP:  48; 6HR MAX TEMP:  62;


$$
MIZ043>046-050>051-056>058-064>065-071>073-077>080-221900-
SOUTHWEST LOWER MICHIGAN

CITY           SKY/WX    TMP DP  RH WIND       PRES   REMARKS
BATTLE CREEK   SUNNY     60  42  51 NW9       30.25S
6HR MIN TEMP:  41; 6HR MAX TEMP:  60;

BENTON HARBOR  SUNNY     58  45  62 VRB7      30.28S
6HR MIN TEMP:  41; 6HR MAX TEMP:  58;

COLDWATER*     SUNNY     61  41  47 NW6       30.24F
6HR MIN TEMP:  45; 6HR MAX TEMP:  61;

HILLSDALE*     SUNNY     60  40  47 NW6       30.23S
HOLLAND        SUNNY     60  46  59 W9        30.27S
6HR MIN TEMP:  42; 6HR MAX TEMP:  61;

GRAND RAPIDS   MOSUNNY   60  44  55 W9        30.24F
6HR MIN TEMP:  44; 6HR MAX TEMP:  61;

KALAMAZOO      SUNNY     61  42  49 N10       30.25F
6HR MIN TEMP:  42; 6HR MAX TEMP:  61;

STURGIS*       SUNNY     59  43  55 N6        30.24F
THREE RIVERS*  FAIR      61  43  52 N7G16     30.25F
6HR MIN TEMP:  42; 6HR MAX TEMP:  61;


$$
OHZ001>008-015>018-024>025-221900-
NORTHWEST OHIO

CITY           SKY/WX    TMP DP  RH WIND       PRES   REMARKS
WAUSEON*       FAIR      61  41  48 NW9       30.23S
DEFIANCE       SUNNY    N/A N/A N/A N9        30.24S
FINDLAY        SUNNY     61  39  44 NW9       30.22S
6HR MIN TEMP:  48; 6HR MAX TEMP:  61;

TOLEDO EXPRESS SUNNY     59  40  49 W5        30.22S
6HR MIN TEMP:  48; 6HR MAX TEMP:  60;

TOLEDO METCALF SUNNY     59  41  51 NW9       30.23F
6HR MIN TEMP:  48; 6HR MAX TEMP:  59;

LIMA           SUNNY     59  41  51 NW8       30.23F
6HR MIN TEMP:  48; 6HR MAX TEMP:  59;


$$
AND FOR LAKE MICHIGAN COASTAL AND OPEN LAKE BUOY OBSERVATIONS

STATION/POSITION TEMP    WIND        PRES    VSBY  WAVE
                 AIR SEA DIR/SP/G                  HT/PER
                 (F)     (DEG/KT/KT) (MB)    (MI)  (FT/S)
CALUMET HARBOR    56      50/  5/  7 1024.3F
MICHIGAN CITY     58     330/  8/ 11   N/A
SAINT JOSEPH      57     310/  6/  9 1025.4S
SOUTH LAKE BUOY   55 62  260/  8/ 10 1025.4F         3/ 7
4 MI NW BRIDGMAN  56 65  360/  8/ 14   N/A           3/ 5
MICHIGAN CITY     56 64  360/  6/ 10   N/A           4/ 7

$$
&&


USA.gov is the U.S. government's official web portal to all federal, state and local government web resources and services.